Wilmington, DE

9:18 AM EST on November 13, 2019 (GMT -0500)
New Castle County

Weather History for KILG - October, 2019

Change the Weather History Date:

Sunday, October 20, 2019

  Actual Average Record
Temperature  
Mean Temperature 52 °F 55 °F  
Max Temperature 57 °F 65 °F 82 °F (1969)
Min Temperature 47 °F 45 °F 27 °F (1974)
Degree Days  
Heating Degree Days 13 11  
Month to date heating degree days 103 155  
Since 1 July heating degree days 109 207  
Cooling Degree Days 0 0  
Month to date cooling degree days 46 15  
Year to date cooling degree days 1505 1142  
Growing Degree Days 2 (Base 50)    
Moisture  
Dew Point 53 °F    
Average Humidity 93    
Maximum Humidity 100    
Minimum Humidity 86    
Precipitation  
Precipitation 0.54 in 0.10 in 2.59 in (1910)
Month to date precipitation 2.67 2.29  
Year to date precipitation 39.27 35.37  
Snow  
Snow 0.00 in 0.00 in 0.00 in (1894)
Month to date snowfall 0.0 0.0  
Since 1 July snowfall 0.0 0.0  
Since 1 September snowfall 0.0 0.0  
Snow Depth 0.00 in    
Sea Level Pressure  
Sea Level Pressure 29.96 in    
Wind  
Wind Speed 9 mph (NE)    
Max Wind Speed 22 mph    
Max Gust Speed 27 mph    
Visibility 7 miles    
Events Rain    
T = Trace of Precipitation, MM = Missing Value Source: NWS Daily Summary

Daily Weather History Graph

Daily Weather History Graph

Search for Another Location

Airport or City:

Astronomy

Oct. 20, 2019 Rise Set
Actual Time 7:17 AM EDT 6:16 PM EDT
Civil Twilight 6:50 AM EDT 6:43 PM EDT
Nautical Twilight 6:18 AM EDT 7:14 PM EDT
Astronomical Twilight 5:47 AM EDT 7:46 PM EDT
Moon 11:23 PM EDT (10/20) 1:42 PM EDT (10/20)
Length of Visible Light 11h 53m
Length of Day
10h 58m
Waning Gibbous, 59% of the Moon is Illuminated
Oct 20
Waning Gibbous
Oct 21
Last Quarter
Oct 27
New
Nov 4
First Quarter
Nov 12
Full

Hourly Weather History & Observations

Time (EDT) Temp. Dew Point Humidity Pressure Visibility Wind Dir Wind Speed Gust Speed Precip Events Conditions
12:51 AM 51.1 °F 48.9 °F 92% 30.04 in 10.0 mi Calm Calm - N/A   Clear
1:51 AM 51.1 °F 48.9 °F 92% 30.03 in 10.0 mi Calm Calm - N/A   Clear
2:51 AM 48.9 °F 46.9 °F 93% 30.03 in 10.0 mi Calm Calm - N/A   Clear
3:51 AM 48.0 °F 46.9 °F 96% 30.00 in 10.0 mi Calm Calm - N/A   Clear
4:51 AM 46.9 °F 46.0 °F 97% 30.00 in 10.0 mi North 3.5 mph - N/A   Clear
5:51 AM 50.0 °F 48.0 °F 93% 29.99 in 10.0 mi NE 3.5 mph - N/A   Partly Cloudy
6:51 AM 51.1 °F 48.9 °F 92% 30.00 in 10.0 mi North 3.5 mph - N/A   Partly Cloudy
7:51 AM 53.1 °F 50.0 °F 89% 30.01 in 10.0 mi NE 4.6 mph - N/A   Overcast
8:51 AM 54.0 °F 52.0 °F 93% 30.02 in 9.0 mi NNE 3.5 mph - 0.00 in Rain Light Rain
9:51 AM 55.0 °F 52.0 °F 89% 30.01 in 9.0 mi ENE 5.8 mph - 0.02 in Rain Light Rain
10:51 AM 55.9 °F 53.1 °F 90% 30.02 in 6.0 mi ENE 5.8 mph - 0.00 in Rain Light Rain
11:51 AM 55.9 °F 54.0 °F 93% 30.02 in 2.5 mi NNE 8.1 mph - 0.06 in Rain Rain
12:21 PM 55.0 °F 54.0 °F 96% 30.01 in 2.5 mi NE 9.2 mph - 0.03 in Rain Light Rain
12:47 PM 55.4 °F 55.4 °F 100% 29.99 in 2.5 mi NE 11.5 mph - 0.05 in Rain Light Rain
12:51 PM 55.9 °F 55.0 °F 97% 29.99 in 2.5 mi NE 11.5 mph - 0.06 in Rain Light Rain
1:48 PM 55.4 °F 55.4 °F 100% 29.96 in 2.5 mi NE 10.4 mph - 0.07 in Rain Rain
1:51 PM 55.9 °F 55.0 °F 97% 29.96 in 2.5 mi NE 11.5 mph - 0.07 in Rain Rain
1:58 PM 55.9 °F 55.0 °F 97% 29.95 in 3.0 mi NE 12.7 mph - 0.02 in Rain Rain
2:17 PM 55.9 °F 55.0 °F 97% 29.94 in 4.0 mi NNE 13.8 mph - 0.04 in Rain Light Rain
2:51 PM 55.9 °F 55.0 °F 97% 29.91 in 6.0 mi NE 16.1 mph - 0.06 in Rain Light Rain
3:51 PM 55.9 °F 55.0 °F 97% 29.91 in 4.0 mi NE 17.3 mph - 0.05 in Rain Rain
4:22 PM 57.0 °F 55.9 °F 96% 29.91 in 5.0 mi NE 21.9 mph 27.6 mph 0.04 in Rain Light Rain
4:51 PM 57.0 °F 55.0 °F 93% 29.91 in 8.0 mi NE 15.0 mph - 0.05 in Rain Light Rain
5:18 PM 57.0 °F 55.0 °F 93% 29.91 in 1.8 mi NE 17.3 mph 25.3 mph 0.03 in Rain Heavy Rain
5:37 PM 55.9 °F 55.0 °F 97% 29.91 in 2.5 mi NE 15.0 mph - 0.08 in Rain Rain
5:46 PM 55.4 °F 55.4 °F 100% 29.91 in 3.0 mi NNE 15.0 mph - 0.09 in Rain Rain
5:51 PM 55.9 °F 55.0 °F 97% 29.91 in 4.0 mi NNE 13.8 mph 24.2 mph 0.09 in Rain Rain
6:16 PM 55.9 °F 54.0 °F 93% 29.91 in 7.0 mi NNE 19.6 mph 25.3 mph 0.02 in Rain Light Rain
6:51 PM 55.0 °F 53.1 °F 93% 29.91 in 10.0 mi NNE 17.3 mph - 0.03 in Rain Light Rain
7:46 PM 55.4 °F 53.6 °F 94% 29.92 in 10.0 mi NNE 17.3 mph 26.5 mph 0.02 in   Overcast
7:51 PM 55.0 °F 53.1 °F 93% 29.93 in 10.0 mi NNE 16.1 mph 24.2 mph 0.02 in Rain Light Rain
8:41 PM 55.0 °F 53.1 °F 93% 29.94 in 7.0 mi NNE 12.7 mph 21.9 mph 0.00 in Rain Light Rain
8:51 PM 55.0 °F 53.1 °F 93% 29.94 in 6.0 mi NNE 13.8 mph - 0.00 in Rain Light Rain
9:39 PM 54.0 °F 53.1 °F 97% 29.95 in 8.0 mi NNE 12.7 mph - 0.01 in Rain Light Rain
9:51 PM 54.0 °F 53.1 °F 97% 29.95 in 6.0 mi NNE 13.8 mph 20.7 mph 0.01 in Rain Light Rain
10:26 PM 54.0 °F 53.1 °F 97% 29.95 in 5.0 mi NNE 12.7 mph - 0.02 in Rain Light Rain
10:51 PM 54.0 °F 53.1 °F 97% 29.96 in 10.0 mi NNE 11.5 mph - 0.02 in   Overcast
11:51 PM 54.0 °F 53.1 °F 97% 29.95 in 10.0 mi North 10.4 mph - N/A   Overcast